"Pseudo-MPEC" for P119Vzu

Created 2020 Nov 23 1:07:29 UT using Find_Orb

Click here for an explanation of pseudo-MPECs

 
 Astrometry: 
     P119Vzu  C2020 11 20nRhuY-+]p6Ofe`t3H7H'Xfm48A@w]QEi@uI'`wpi=\OkIQ(qYcOyF51
     P119Vzu  C2020 11 200=8Q7iAstrometryhi52cd5jDug:?_vnPE33vF2`=JkUn3x]EaGZF51
     P119Vzu  C2020 11 20Qk0r+OW(w.'wAxdqxQW;!pI5n,[/So`xY3*.jf`Rm7sEDCSU_.W/F51
     P119Vzu  C2020 11 20XmX(grQNp1;Tsredacted;+@Y^hK13MV1clickZ1pBCY67?hererF51
     P119Vzu |C2020 11 21%k#-;hHp-6OEXWFMgWaR'*u`^eR#71H;rd)@4E'$forOM]O^)W%`807
     P119Vzu |C2020 11 21WAHS'-3dVDgKQ.6e.Cexplanation]E2]cib#.sD0=y9\/^IZThk807
     P119Vzu |C2020 11 21sPc3.wE`iadQZ.ba4Y:NoIfr)@LK1yti\9i[y3B=dWLr::2hc[.\807
     P119Vzu KC2020 11 21.19068 02 11 51.30 -21 58 01.3    ~BL5M 21.1 RoNEOCP291
     P119Vzu KC2020 11 21.19118402 11 51.33 -21 58 00.0    ~BL57 21.23GVNEOCPI52
     P119Vzu KC2020 11 21.19501902 11 51.84 -21 57 42.9    ~BL57 20.73GVNEOCPI52
     P119Vzu KC2020 11 21.19517 02 11 51.94 -21 57 41.6    ~BL5M 20.8 RoNEOCP291
     P119Vzu KC2020 11 21.19885502 11 52.35 -21 57 26.6    ~BL57 20.38GVNEOCPI52
     P119Vzu KC2020 11 21.19965 02 11 52.51 -21 57 21.4    ~BL5M 20.9 RoNEOCP291
     P119Vzu KC2020 11 22.16355 02 14 12.86 -20 46 39.6    ~BM4b 20.9 RoNEOCP291
     P119Vzu KC2020 11 22.16664 02 14 13.30 -20 46 25.9    ~BM4b       oNEOCP291
     P119Vzu KC2020 11 22.16973 02 14 13.72 -20 46 12.7    ~BM4b 21.3 RoNEOCP291
     P119Vzu KC2020 11 22.17137502 14 13.94 -20 46 06.3    ~BM4M 21.14GVNEOCPI52
     P119Vzu KC2020 11 22.17291002 14 14.09 -20 45 59.7    ~BM4M 20.10GVNEOCPI52
     P119Vzu KC2020 11 22.17444502 14 14.27 -20 45 52.8    ~BM4M 20.55GVNEOCPI52
     P119Vzu hC2020 11 22O.i:bEi$5%qXaJk]h0:njf.^RQH3_*+hlO]TtL2c+]vl.g*PQDDBL01
     P119Vzu hC2020 11 22e,=]N+w26?%e3:(F#4]SZkAduLcsHN)E=1P:Dg4#,j6Fs6$atWu?L01
     P119Vzu hC2020 11 22R:o%#hM+nV*fh[Zfni._YU2J3MxjHqCfH?UO$#`/i(DJnr7.WJ=CL01

Station data:
(291) LPL/Spacewatch II  (N31.961669 W111.599905)  US/Arizona.  Observers J.
   V. Scotti, R. S. McMillan. 1.8-m f/2.7 reflector + CCD.
(807) Cerro Tololo Observatory, La Serena  (S30.169136 W70.805900)  Chile.
(F51) Pan-STARRS 1, Haleakala  (N20.707235 W156.255910)  US/Hawaii.
   Observers N. Primak, A. Schultz, S. Watters, J. Thiel, T. Goggia. Measurer
   PS1 Science Consortium. 1.8-m Ritchey-Chrétien + CCD.
(I52) Steward Observatory, Mt. Lemmon Station  (N32.442547 W110.788920)
   US/Arizona.  Observers T. A. Pruyne, B. M. Africano, E. J. Christensen, G.
   A. Farneth, D. C. Fuls, A. R. Gibbs, A. D. Grauer, H. Gröller, J. A.
   Johnson, R. A. Kowalski, S. M. Larson, G. J. Leonard, D. Rankin, R. L.
   Seaman, F. C. Shelly. 1.0-m reflector + CCD.
(L01) Višnjan Observatory, Tičan  (N45.290900 E13.749300)  Croatia.
   Observers K. Korlević, E. Pettarin. Measurer E. Pettarin. 1.0-m f/2.9
   reflector + CCD.

Orbital elements:  P119Vzu
   Perihelion 2020 Oct 7.324052 +/- 0.0947 TT =  7:46:38 (JD 2459129.824052)
Epoch 2020 Nov 22.0 TT = JDT 2459175.5   Earth MOID: 0.1664   Ma: 0.0061
M  12.99330912 +/- 0.34             (J2000 ecliptic)          AutoNEOCP
n   0.28446720 +/- 0.00722          Peri.  262.34581 +/- 0.21
a   2.28971403 +/- 0.0387           Node   103.12481 +/- 0.18
e   0.5373902 +/- 0.00741           Incl.    9.24630 +/- 0.09
P   3.46                   H 22.1   G  0.15   U  9.4  
q 1.05924398 +/- 0.00107    Q 3.52018408 +/- 0.0779
From 22 observations 2020 Nov. 20-22; mean residual 0".37
Residuals in arcseconds: 
201120 F51  .04-  .16-    201121 I52  .17+  .00     201122 I52  .66+  .57-    
201120 F51  .15-  .14-    201121 I52  .03+  .14+    201122 I52  .07-  .64-    
201120 F51  .04+  .02-    201121 291  .73+  .58+    201122 I52  .39-  .40-    
201120 F51  .01-  .08-    201121 I52  .10-  .53-    201122 L01  .13+  .62+    
201121 807  .32-  .26-    201121 291  .22+  .96+    201122 L01  .03-  .47+    
201121 807  .29-  .14-    201122 291  .40-  .13-    201122 L01  .21-  .53-    
201121 807  .25-  .02-    201122 291  .05+  .17+    
201121 291  .29+  .73+    201122 291  .22+  .05-    

Ephemerides (geocentric):
Date (UTC) HH   RA              Dec         delta   r     elong  mag " sig PA
---- -- -- --  -------------   -----------  ------ ------ -----  --- ---- ---
2020 11 23 01  02 16 16.126   -19 42 53.52  .28212 1.1984 133.2 21.2 .348 177
2020 11 23 02  02 16 21.932   -19 39 54.63  .28232 1.1986 133.2 21.2 .358 178
2020 11 23 03  02 16 27.732   -19 36 55.88  .28252 1.1989 133.3 21.2 .368 179
2020 11 23 04  02 16 33.525   -19 33 57.27  .28273 1.1991 133.3 21.2 .378 179
2020 11 23 05  02 16 39.310   -19 30 58.80  .28293 1.1993 133.3 21.2 .388   0
2020 11 23 06  02 16 45.089   -19 28 00.47  .28313 1.1995 133.3 21.2 .399   1
2020 11 23 07  02 16 50.861   -19 25 02.27  .28333 1.1998 133.4 21.2 .410   1
2020 11 23 08  02 16 56.626   -19 22 04.22  .28353 1.2000 133.4 21.2 .421   2
2020 11 23 09  02 17 02.384   -19 19 06.30  .28374 1.2002 133.4 21.2 .433   3
2020 11 23 10  02 17 08.135   -19 16 08.52  .28394 1.2004 133.4 21.2 .445   3
2020 11 23 11  02 17 13.879   -19 13 10.89  .28414 1.2007 133.5 21.2 .457   4
2020 11 23 12  02 17 19.617   -19 10 13.39  .28435 1.2009 133.5 21.2 .470   4
2020 11 23 13  02 17 25.347   -19 07 16.03  .28455 1.2011 133.5 21.2 .482   5
2020 11 23 14  02 17 31.071   -19 04 18.82  .28475 1.2013 133.5 21.2 .495   5
2020 11 23 15  02 17 36.788   -19 01 21.74  .28496 1.2016 133.5 21.2 .509   6
2020 11 23 16  02 17 42.498   -18 58 24.80  .28516 1.2018 133.6 21.2 .522   7
2020 11 23 17  02 17 48.202   -18 55 28.01  .28537 1.2020 133.6 21.2 .536   7
2020 11 23 18  02 17 53.898   -18 52 31.35  .28557 1.2022 133.6 21.2 .551   8
2020 11 23 19  02 17 59.588   -18 49 34.84  .28578 1.2025 133.6 21.2 .565   8
2020 11 23 20  02 18 05.272   -18 46 38.47  .28599 1.2027 133.7 21.2 .580   9
2020 11 23 21  02 18 10.948   -18 43 42.24  .28619 1.2029 133.7 21.2 .595   9
2020 11 23 22  02 18 16.618   -18 40 46.14  .28640 1.2031 133.7 21.2 .610   9
2020 11 23 23  02 18 22.282   -18 37 50.20  .28661 1.2034 133.7 21.2 .626  10
2020 11 24 00  02 18 27.939   -18 34 54.39  .28681 1.2036 133.8 21.2 .642  10
2020 11 24 01  02 18 33.589   -18 31 58.72  .28702 1.2038 133.8 21.2 .658  11
2020 11 24 02  02 18 39.233   -18 29 03.20  .28723 1.2041 133.8 21.2 .675  11
2020 11 24 03  02 18 44.870   -18 26 07.82  .28744 1.2043 133.8 21.2 .692  12
2020 11 24 04  02 18 50.500   -18 23 12.58  .28765 1.2045 133.8 21.2 .709  12
2020 11 24 05  02 18 56.124   -18 20 17.49  .28786 1.2047 133.9 21.2 .726  12
2020 11 24 06  02 19 01.742   -18 17 22.53  .28807 1.2050 133.9 21.2 .744  13
2020 11 24 07  02 19 07.353   -18 14 27.72  .28828 1.2052 133.9 21.2 .762  13
2020 11 24 08  02 19 12.958   -18 11 33.06  .28849 1.2054 133.9 21.2 .781  14
2020 11 24 09  02 19 18.556   -18 08 38.53  .28870 1.2057 134.0 21.2 .799  14
2020 11 24 10  02 19 24.148   -18 05 44.15  .28891 1.2059 134.0 21.2 .818  14
2020 11 24 11  02 19 29.733   -18 02 49.91  .28912 1.2061 134.0 21.2 .837  15
2020 11 24 12  02 19 35.312   -17 59 55.82  .28933 1.2063 134.0 21.3 .857  15
2020 11 24 13  02 19 40.885   -17 57 01.87  .28954 1.2066 134.1 21.3 .877  15
2020 11 24 14  02 19 46.451   -17 54 08.06  .28975 1.2068 134.1 21.3 .897  16
2020 11 24 15  02 19 52.011   -17 51 14.40  .28997 1.2070 134.1 21.3 .917  16
2020 11 24 16  02 19 57.565   -17 48 20.88  .29018 1.2073 134.1 21.3 .938  16
2020 11 24 17  02 20 03.112   -17 45 27.51  .29039 1.2075 134.1 21.3 .959  16
2020 11 24 18  02 20 08.653   -17 42 34.28  .29061 1.2077 134.2 21.3 .980  17
2020 11 24 19  02 20 14.188   -17 39 41.19  .29082 1.2079 134.2 21.3 1.00  17
2020 11 24 20  02 20 19.717   -17 36 48.25  .29103 1.2082 134.2 21.3 1.02  17
2020 11 24 21  02 20 25.239   -17 33 55.45  .29125 1.2084 134.2 21.3 1.05  18
2020 11 24 22  02 20 30.755   -17 31 02.80  .29146 1.2086 134.2 21.3 1.07  18
2020 11 24 23  02 20 36.265   -17 28 10.30  .29168 1.2089 134.3 21.3 1.09  18
2020 11 25 00  02 20 41.769   -17 25 17.94  .29189 1.2091 134.3 21.3 1.11  18